[[{"header":{"parameterUnit":"m.s-1","parameterCategory":1,"la1":30.2991,"la2":30.254,"lo1":-89.0895,"lo2":-89.0444,"dy":0.0017,"dx":0.0017,"nx":28,"ny":28,"refTime":"2025-12-28T09:00:00:Z","depth":0,"parameterNumber":2,"parameterNumberName":"U-component_of_WINDS"},"data":[0,0,0,0,0,0,0,0,0,0,0,0,0,0,0,0,0,0,0,0,0,0,0,0,0,0,0,0,0,0,0,0,0,0,0,0,0,0,0,0,0,0,0,0,0,0,0,0,0,0,0,0,0,0,0,0,0,0,1.53,1.5299,0,1.5267,1.5267,1.5266,1.525,1.525,1.525,1.525,1.5213,1.5212,1.5211,0,0,0,0,0,0,0,0,0,0,0,0,0,1.5346,1.5345,1.53,1.5299,1.5299,1.5267,1.5267,1.5266,1.525,1.525,1.525,1.525,1.5213,1.5212,1.5211,0,0,0,0,0,0,0,0,0,0,0,0,0,1.5321,1.5345,1.53,1.5287,1.5286,1.5267,1.5267,1.5266,1.525,1.525,1.525,1.525,1.5214,1.5212,1.5211,1.5201,0,0,1.5206,1.5206,0,0,0,0,0,0,0,0,1.5322,1.5319,1.5289,1.5288,1.5286,1.5263,1.5269,1.5244,1.525,1.5263,1.525,1.525,1.5229,1.5227,1.522,1.5199,1.5198,1.5206,1.5205,1.5205,1.5204,0,0,0,0,0,0,0,1.5324,1.532,1.5287,1.5289,1.5287,1.5282,1.5279,1.5264,1.5247,1.5262,1.5261,1.5258,1.5228,1.5222,1.5219,1.5197,1.5206,1.5205,1.5204,1.5203,1.5168,1.5168,0,0,0,0,0,0,1.5328,1.5322,1.5288,1.5286,1.5305,1.5281,1.5277,1.527,1.5247,1.5243,1.5258,1.5257,1.5224,1.5221,1.5218,1.5206,1.5205,1.5203,1.5202,1.5168,1.5168,1.5168,0,0,0,0,0,0,1.5329,1.5325,1.5289,1.5303,1.5298,1.5281,1.5273,1.527,1.5263,1.5243,1.524,1.5254,1.5224,1.522,1.5206,1.5204,1.5202,1.5201,1.5168,1.5168,1.5168,1.5181,0,0,0,0,0,0,1.533,1.5326,1.5322,1.5303,1.5298,1.5278,1.5272,1.5269,1.5261,1.526,1.5239,1.5236,1.5224,1.5208,1.5204,1.5202,1.52,1.5168,1.5168,1.5168,1.518,1.5181,1.5182,0,0,0,0,0,1.5332,1.5326,1.5322,1.5318,1.5293,1.5278,1.5275,1.5262,1.5261,1.5257,1.5244,1.5236,1.5205,1.5207,1.5203,1.5199,1.5168,1.5168,1.5168,1.518,1.5181,1.5182,0,0,0,0,0,0,1.5343,1.5323,1.5319,1.5307,1.5295,1.5276,1.527,1.5264,1.5251,1.525,1.5234,1.523,1.5217,1.5207,1.5209,1.519,1.5186,1.5185,1.5196,1.5197,1.5198,1.52,1.5199,0,0,0,0,0,1.5345,1.5335,1.5318,1.5309,1.5303,1.5288,1.5281,1.5273,1.5259,1.5253,1.524,1.5226,1.5213,1.5205,1.5192,1.5179,1.5174,1.5175,1.5176,1.5176,1.5175,1.5169,1.5169,1.5168,1.5168,1.5168,0,0,1.5347,1.5335,1.5329,1.5311,1.53,1.529,1.5283,1.5272,1.5265,1.5251,1.5237,1.5227,1.5211,1.5198,1.5191,1.5189,1.5175,1.5176,1.5177,1.5175,1.5168,1.5169,1.5169,1.5168,1.5168,1.5168,0,0,1.5345,1.5335,1.5327,1.5317,1.5302,1.5293,1.5291,1.5273,1.5266,1.5253,1.5243,1.5233,1.5211,1.52,1.5191,1.5188,1.518,1.5184,1.5187,1.5181,1.5181,1.5181,1.5179,1.5179,1.5183,1.5183,1.5183,0,1.5349,1.5334,1.5323,1.5313,1.5305,1.5295,1.5286,1.5277,1.5258,1.5252,1.525,1.5224,1.5212,1.5196,1.5196,1.5189,1.5186,1.5186,1.5182,1.5182,1.5181,1.518,1.5179,1.5184,1.5184,1.5184,1.5184,0,1.534,1.533,1.5325,1.5309,1.53,1.5291,1.5278,1.5271,1.5264,1.5254,1.5241,1.5227,1.5211,1.5207,1.5199,1.519,1.519,1.5185,1.5181,1.5182,1.5181,1.518,1.5185,1.5185,1.5184,1.5184,0,0,1.5342,1.5322,1.532,1.5313,1.5297,1.5288,1.5279,1.5265,1.5259,1.5247,1.5238,1.5221,1.5217,1.5208,1.5199,1.5193,1.5192,1.5189,1.5189,1.519,1.5181,1.5185,1.5184,1.5187,1.5187,1.5187,1.5183,0,1.5338,1.5322,1.5312,1.5299,1.529,1.5281,1.5272,1.5261,1.5252,1.5242,1.5232,1.522,1.5216,1.521,1.5205,1.5193,1.519,1.5193,1.5178,1.5177,1.5182,1.5183,1.5186,1.5183,1.5182,1.5182,1.5182,0,1.5331,1.5321,1.5307,1.5293,1.5289,1.5281,1.5269,1.526,1.5247,1.5241,1.5231,1.5223,1.5212,1.521,1.5195,1.5198,1.5191,1.5185,1.5184,1.5181,1.5179,1.518,1.5182,1.5181,1.5181,1.5181,1.5181,0,1.5334,1.5317,1.5307,1.5301,1.5284,1.5279,1.5272,1.526,1.5252,1.5241,1.5236,1.5223,1.5216,1.5206,1.5194,1.5194,1.518,1.5177,1.5174,1.5175,1.5171,1.5171,1.5171,1.5168,1.5168,1.5168,1.5168,0,1.533,1.5322,1.5308,1.5302,1.5293,1.5282,1.5273,1.5265,1.5254,1.5246,1.5237,1.5229,1.5214,1.5204,1.5195,1.5184,1.5181,1.5175,1.5173,1.5176,1.5176,1.517,1.517,1.5168,1.5168,1.5168,1.5168,0,1.5331,1.5322,1.531,1.5296,1.5292,1.5286,1.5274,1.5267,1.5259,1.5248,1.5245,1.5232,1.522,1.5208,1.5191,1.5185,1.5174,1.5171,1.5179,1.5177,1.5175,1.5175,1.5171,1.5169,1.5168,1.5168,1.5168,0,1.5329,1.5323,1.5309,1.5303,1.5296,1.5287,1.528,1.527,1.5263,1.5249,1.5244,1.5232,1.5222,1.5203,1.5191,1.5179,1.5175,1.5174,1.5173,1.5177,1.5175,1.5175,1.5174,1.5174,1.5175,1.5175,1.5175,0,1.5325,1.5321,1.5312,1.5302,1.5295,1.5286,1.5276,1.5272,1.526,1.5252,1.5241,1.5233,1.5218,1.5206,1.5193,1.5184,1.5177,1.5176,1.5174,1.5177,1.5181,1.5178,1.518,1.5175,1.5175,1.5175,1.5175,1.5175,1.5324,1.5319,1.5309,1.5299,1.5291,1.5283,1.5277,1.5268,1.5259,1.5246,1.5241,1.523,1.5218,1.52,1.5192,1.5182,1.518,1.5178,1.5177,1.5177,1.5178,1.5184,1.518,1.518,1.518,1.5179,1.5179,0,1.532,1.5314,1.5305,1.5293,1.5286,1.5282,1.5272,1.5266,1.5256,1.5247,1.5237,1.5225,1.5214,1.5202,1.519,1.5185,1.5181,1.5182,1.5181,1.518,1.518,1.5182,1.5185,1.5185,1.5185,1.5185,1.5185,1.5185,1.5317,1.5308,1.5303,1.529,1.5283,1.5273,1.5268,1.526,1.5252,1.5239,1.523,1.5223,1.5213,1.52,1.519,1.5187,1.5182,1.5184,1.5179,1.518,1.5179,1.5179,1.5181,1.5183,1.5183,1.5179,1.5179,1.5179]},{"header":{"parameterUnit":"m.s-1","parameterCategory":1,"la1":30.2991,"la2":30.254,"lo1":-89.0895,"lo2":-89.0444,"dy":0.0017,"dx":0.0017,"nx":28,"ny":28,"refTime":"2025-12-28T09:00:00:Z","depth":0,"parameterNumber":3,"parameterNumberName":"V-component_of_WINDS"},"data":[0,0,0,0,0,0,0,0,0,0,0,0,0,0,0,0,0,0,0,0,0,0,0,0,0,0,0,0,0,0,0,0,0,0,0,0,0,0,0,0,0,0,0,0,0,0,0,0,0,0,0,0,0,0,0,0,0,0,-8.7762,-8.7763,0,-8.7921,-8.7923,-8.7925,-8.7822,-8.7817,-8.7813,-8.7808,-8.7965,-8.7973,-8.7982,0,0,0,0,0,0,0,0,0,0,0,0,0,-8.7363,-8.737,-8.7761,-8.7763,-8.7765,-8.7921,-8.7923,-8.7925,-8.7823,-8.7817,-8.7812,-8.7806,-8.7962,-8.7972,-8.7982,0,0,0,0,0,0,0,0,0,0,0,0,0,-8.753,-8.7373,-8.7761,-8.7733,-8.7733,-8.792,-8.7923,-8.7926,-8.7824,-8.7817,-8.781,-8.7803,-8.7959,-8.7971,-8.7984,-8.8206,0,0,-8.8023,-8.8029,0,0,0,0,0,0,0,0,-8.7521,-8.7545,-8.7735,-8.7736,-8.7735,-8.7845,-8.784,-8.8019,-8.7826,-8.7789,-8.7808,-8.78,-8.793,-8.7945,-8.799,-8.8213,-8.822,-8.8024,-8.8032,-8.8038,-8.8041,0,0,0,0,0,0,0,-8.7509,-8.7537,-8.7824,-8.7738,-8.7738,-8.7711,-8.7727,-8.7873,-8.7897,-8.7792,-8.7785,-8.7806,-8.7928,-8.7978,-8.7993,-8.8222,-8.8024,-8.8035,-8.8043,-8.8048,-8.8635,-8.8643,0,0,0,0,0,0,-8.7501,-8.7528,-8.7819,-8.7829,-8.7608,-8.7724,-8.7742,-8.7816,-8.7896,-8.7901,-8.7811,-8.78,-8.796,-8.7978,-8.7998,-8.8264,-8.8038,-8.805,-8.8057,-8.8627,-8.8637,-8.8645,0,0,0,0,0,0,-8.7493,-8.7528,-8.7813,-8.7677,-8.7711,-8.7739,-8.7823,-8.7823,-8.7873,-8.791,-8.7913,-8.7858,-8.7955,-8.798,-8.8155,-8.8268,-8.8055,-8.8067,-8.8618,-8.863,-8.8641,-8.8796,0,0,0,0,0,0,-8.7482,-8.7525,-8.7611,-8.768,-8.7719,-8.797,-8.783,-8.7832,-8.7896,-8.7883,-8.7955,-8.796,-8.7951,-8.8137,-8.8168,-8.8282,-8.8077,-8.8608,-8.8623,-8.8637,-8.8781,-8.8812,-8.8838,0,0,0,0,0,-8.7468,-8.7647,-8.7616,-8.7652,-8.7827,-8.7976,-8.7998,-8.7987,-8.7906,-8.7991,-8.8016,-8.7958,-8.8251,-8.8156,-8.819,-8.8309,-8.8601,-8.8619,-8.8636,-8.8769,-8.8806,-8.8838,0,0,0,0,0,0,-8.7588,-8.7655,-8.7622,-8.7829,-8.7899,-8.7959,-8.8067,-8.8026,-8.8118,-8.8102,-8.8081,-8.8098,-8.8281,-8.8312,-8.8206,-8.8528,-8.8413,-8.8438,-8.8501,-8.8537,-8.8565,-8.8554,-8.8088,0,0,0,0,0,-8.764,-8.7757,-8.7808,-8.7986,-8.8023,-8.804,-8.8104,-8.8089,-8.8158,-8.8186,-8.8223,-8.8291,-8.8398,-8.8469,-8.857,-8.8785,-8.8799,-8.8884,-8.8912,-8.8936,-8.8958,-8.9074,-8.9113,-8.8703,-8.8703,-8.8703,0,0,-8.7745,-8.7797,-8.7872,-8.8012,-8.8064,-8.8184,-8.8064,-8.8197,-8.8285,-8.8205,-8.8375,-8.8404,-8.8478,-8.8675,-8.8763,-8.8707,-8.9074,-8.8958,-8.8976,-8.8986,-8.9096,-8.9135,-8.917,-8.8715,-8.8713,-8.8711,0,0,-8.8001,-8.8052,-8.8206,-8.8261,-8.8342,-8.8352,-8.8389,-8.8457,-8.8474,-8.8644,-8.8587,-8.869,-8.8876,-8.8931,-8.8984,-8.9262,-8.9212,-8.9295,-8.9444,-8.9557,-8.959,-8.9618,-8.9718,-8.9753,-8.9317,-8.9317,-8.9317,0,-8.8122,-8.8303,-8.8289,-8.8428,-8.8491,-8.8427,-8.8582,-8.8635,-8.8744,-8.8788,-8.8723,-8.8955,-8.9,-8.921,-8.9278,-8.9322,-8.9363,-8.9287,-8.9587,-8.9615,-8.9641,-8.9736,-8.9773,-8.9327,-8.9326,-8.9325,-8.9324,0,-8.8448,-8.8575,-8.869,-8.88,-8.8875,-8.9021,-8.9028,-8.9106,-8.9085,-8.9101,-8.9274,-8.9327,-8.9438,-8.9486,-8.9465,-8.9693,-8.9655,-8.9589,-8.9473,-8.969,-8.9779,-8.9815,-8.9341,-8.9337,-8.9334,-8.9332,0,0,-8.8783,-8.8885,-8.8928,-8.8977,-8.9062,-8.9159,-8.9301,-8.9412,-8.948,-8.9557,-8.9675,-8.9834,-8.9774,-8.9834,-8.9819,-8.9919,-9.0136,-8.984,-8.9841,-8.9894,-9.039,-9.044,-9.0482,-9.0104,-9.011,-9.0116,-9.0384,0,-8.9044,-8.9296,-8.9288,-8.9521,-8.9638,-8.958,-8.9703,-8.9768,-8.9788,-8.9888,-8.9907,-9.0021,-8.9933,-8.9969,-9.0065,-9.009,-9.0236,-9.007,-9.0212,-9.0218,-9.0196,-9.0528,-9.0581,-9.0831,-9.0418,-9.0424,-9.0428,0,-8.9381,-8.9473,-8.972,-8.9789,-8.9837,-8.9949,-9.0051,-9.0148,-9.022,-9.0226,-9.0295,-9.0264,-9.0406,-9.0287,-9.0482,-9.037,-9.0428,-9.0448,-9.0458,-9.0471,-9.0336,-9.055,-9.0911,-9.0949,-9.0483,-9.0478,-9.0474,0,-8.9602,-8.9787,-8.9958,-9.0002,-9.0087,-9.0167,-9.0206,-9.0271,-9.0338,-9.0426,-9.0469,-9.0572,-9.0628,-9.0707,-9.0704,-9.0617,-9.0903,-9.0782,-9.0911,-9.0912,-9.0974,-9.097,-9.1349,-9.1011,-9.101,-9.101,-9.1009,0,-8.9894,-9.0047,-9.0059,-9.0164,-9.0334,-9.0323,-9.049,-9.052,-9.0579,-9.0688,-9.0642,-9.0744,-9.0735,-9.0838,-9.0836,-9.0999,-9.1024,-9.1032,-9.103,-9.1037,-9.1036,-9.1074,-9.1057,-9.102,-9.1017,-9.1016,-9.1014,0,-9.0169,-9.0183,-9.0366,-9.0432,-9.0453,-9.0575,-9.063,-9.0729,-9.0745,-9.0884,-9.0915,-9.0939,-9.1059,-9.1064,-9.12,-9.1199,-9.1397,-9.1375,-9.1374,-9.137,-9.1499,-9.1487,-9.1917,-9.1972,-9.1597,-9.1601,-9.1604,0,-9.0354,-9.0471,-9.0551,-9.0622,-9.0667,-9.0781,-9.0851,-9.0844,-9.0918,-9.1009,-9.1098,-9.1213,-9.1305,-9.1498,-9.1526,-9.163,-9.1611,-9.1754,-9.1626,-9.1629,-9.1613,-9.1607,-9.1618,-9.1779,-9.1783,-9.1786,-9.1789,0,-9.0683,-9.0685,-9.0788,-9.0895,-9.098,-9.1063,-9.1139,-9.12,-9.1201,-9.1286,-9.141,-9.1482,-9.1622,-9.1737,-9.1839,-9.1875,-9.1833,-9.183,-9.1865,-9.1873,-9.1868,-9.1873,-9.1443,-9.182,-9.1816,-9.1814,-9.1813,-9.1811,-9.0919,-9.1021,-9.1093,-9.121,-9.1268,-9.1341,-9.1439,-9.1468,-9.1571,-9.1687,-9.1676,-9.1813,-9.1881,-9.2013,-9.2059,-9.2164,-9.2115,-9.2166,-9.2179,-9.2192,-9.2206,-9.1852,-9.2182,-9.2181,-9.2181,-9.218,-9.2179,0,-9.1245,-9.129,-9.1398,-9.1508,-9.16,-9.1555,-9.1638,-9.1717,-9.1839,-9.1907,-9.2,-9.2141,-9.2253,-9.2291,-9.2398,-9.2476,-9.2459,-9.2504,-9.2498,-9.2508,-9.2244,-9.2203,-9.2516,-9.2516,-9.2516,-9.2516,-9.2516,-9.2516,-9.1426,-9.1596,-9.1607,-9.1804,-9.1847,-9.1983,-9.2034,-9.2101,-9.2156,-9.2317,-9.2411,-9.2436,-9.2492,-9.2604,-9.2703,-9.2711,-9.2753,-9.2807,-9.2807,-9.256,-9.2526,-9.2494,-9.2455,-9.2816,-9.2817,-9.3062,-9.3064,-9.3066]}]]